Location: Ackerson Creek
(37.8210°N, 119.8757°W)
Time: 16:02:11
(UTC+00:00)

Cosmos 1805 - Pass Details

Date: 13 April 2024
Orbit: 490 x 494 km, 82.5° (Epoch: 22 May)

Event Time Altitude Azimuth Distance (km) Brightness Sun altitude
Rises 12:06:46 0° 345° (NNW) 2,574 6.9 -15.7°
Reaches altitude 10° 12:08:56 10° 339° (NNW) 1,687 5.8 -15.3°
Maximum altitude 12:12:27 43° 267° (W) 695 3.4 -14.6°
Enters shadow 12:15:16 15° 198° (SSW) 1,410 5.0 -14.1°
